Home   Weather   St. Pölten   Past weeks

Flag for Austria Past Weather in St. Pölten, Lower Austria, Austria — Yesterday and Last 2 Weeks

Now
46 °F

Partly sunny.


Feels Like: 41 °F
Forecast: 29 / 50 °F
Wind: 13 mph from Southwest

Location: Tulln Airport

Current Time: Feb 25, 2017 at 5:32:00 pm

Latest Report: Feb 25, 2017 at 4:50 pm


Visibility: 37 mi

Pressure: 30.18 "Hg

Humidity: 46%

Dew Point: 27 °F

Location of St. PöltenLocation

Past Weather in St. Pölten — Graph

°F

St. Pölten Temperature Yesterday

Maximum temperature yesterday: 55 °F (at 4:50 am)
Minimum temperature yesterday: 41 °F (at 8:50 pm)
Average temperature yesterday: 49 °F

High & Low Weather Summary for the Past Weeks

 TemperatureHumidityPressure
High64 °F (Feb 23, 1:50 pm)100% (Feb 15, 5:50 am)30.69 "Hg (Feb 15, 5:50 am)
Low25 °F (Feb 15, 4:50 am)34% (Feb 23, 1:50 pm)29.47 "Hg (Feb 23, 6:50 pm)
Average41 °F75%30.20 "Hg
* Reported Feb 10 3:50 pm — Feb 25 3:50 pm, St. Pölten, Weather by CustomWeather, © 2017

Note: Actual official high and low records may vary slightly from our data, if they occured in-between our weather recording intervals... More about our weather records

Advertising

St. Pölten Weather History for the Previous 24 Hours

Scroll right to see more
 ConditionsComfort  
Time TempWeatherWind HumidityBarometerVisibility
3:50 pm
Sat, Feb 25
48 °FPartly sunny.18 mph43%30.18 "Hg31 mi
2:50 pm48 °FPartly sunny.17 mph43%30.21 "Hg31 mi
1:50 pm48 °FPartly sunny.9 mph40%30.21 "Hg31 mi
12:50 pm46 °FPartly sunny.9 mph40%30.21 "Hg31 mi
11:50 am45 °FScattered clouds.13 mph46%30.24 "Hg31 mi
10:50 am45 °FPassing clouds.10 mph46%30.24 "Hg25 mi
9:50 am41 °FPassing clouds.8 mph61%30.24 "Hg25 mi
8:50 am37 °FPassing clouds.10 mph70%30.21 "Hg25 mi
7:50 am34 °FPassing clouds.7 mph81%30.21 "Hg25 mi
6:50 am32 °FPassing clouds.No wind80%30.18 "Hg19 mi
5:50 am32 °FPassing clouds.3 mph80%30.15 "Hg19 mi
4:50 am32 °FPassing clouds.2 mph75%30.15 "Hg16 mi
9:50 pm
Fri, Feb 24
41 °FPassing clouds.16 mph57%30.01 "Hg19 mi
8:50 pm41 °FPartly cloudy.10 mph57%29.98 "Hg19 mi
7:50 pm43 °FPartly cloudy.16 mph53%29.95 "Hg19 mi
6:50 pm45 °FPartly cloudy.16 mph53%29.89 "Hg19 mi
5:50 pm45 °FPartly cloudy.12 mph61%29.86 "Hg25 mi
Weather by CustomWeather, © 2017

See weather overviewHow to use our weather pages